Location: Kutna Hora
(49.9500°N, 15.2670°E)
Time: 07:56:47
(UTC+02:00)

ISS - Pass Details

Date: 29 March 2019
Orbit: 408 x 410 km, 51.6° (Epoch: 24 April)

Event Time Altitude Azimuth Distance (km) Brightness Sun altitude
Rises 20:04:46 0° 277° (W) 2,338 1.4 -16.1°
Reaches altitude 10° 20:06:52 10° 281° (W) 1,476 0.2 -16.4°
Maximum altitude 20:10:09 63° 3° (N) 462 -3.5 -16.9°
Enters shadow 20:11:11 38° 68° (ENE) 637 -3.2 -17.0°
